Home   Weather   Medina   Past weeks

Flag for Saudi Arabia Past Weather in Medina, Saudi Arabia — Yesterday and Last 2 Weeks

Now
90 °F

Clear.


Feels Like: 86 °F
Forecast: 74 / 99 °F
Wind: 9 mph from Northwest

Location: Madinah

Current Time: Apr 28, 2017 at 11:21:01 pm

Latest Report: Apr 28, 2017 at 10:00 pm


Visibility: 10 mi

Pressure: 29.98 "Hg (28.01 "Hg at 606m altitude)

Humidity: 9%

Dew Point: 23 °F

Location of MedinaLocation

Past Weather in Medina — Graph

°F

Medina Temperature Yesterday

Maximum temperature yesterday: 99 °F (at 2:00 pm)
Minimum temperature yesterday: 75 °F (at 5:00 am)
Average temperature yesterday: 88 °F

High & Low Weather Summary for the Past Weeks

 TemperatureHumidityPressure
High106 °F (Apr 22, 4:00 pm)36% (Apr 17, 5:00 am)30.12 "Hg (Apr 17, 5:00 am)
Low72 °F (Apr 19, 6:00 am)1% (Apr 18, 8:00 pm)29.80 "Hg (Apr 24, 4:00 pm)
Average89 °F13%29.95 "Hg
* Reported Apr 13 10:00 pm — Apr 28 10:00 pm, Medina, Weather by CustomWeather, © 2017

Note: Actual official high and low records may vary slightly from our data, if they occured in-between our weather recording intervals... More about our weather records

Advertising

Medina Weather History for the Previous 24 Hours

Scroll right to see more
 ConditionsComfort  
Time TempWeatherWind HumidityBarometerVisibility
10:00 pm
Fri, Apr 28
90 °FClear.9 mph9%29.98 "Hg10 mi
9:00 pm91 °FClear.6 mph6%29.95 "Hg10 mi
8:00 pm93 °FClear.7 mph5%29.92 "Hg10 mi
7:00 pm95 °FClear.9 mph5%29.89 "Hg10 mi
6:00 pm97 °FSunny.14 mph4%29.86 "Hg10 mi
5:00 pm99 °FSunny.18 mph3%29.86 "Hg10 mi
4:00 pm100 °FSunny.12 mph4%29.86 "Hg10 mi
3:00 pm99 °FSunny.7 mph3%29.89 "Hg10 mi
2:00 pm99 °FSunny.13 mph3%29.92 "Hg10 mi
1:00 pm97 °FSunny.8 mph3%29.95 "Hg10 mi
12:00 pm93 °FSunny.7 mph4%29.98 "Hg10 mi
11:00 am91 °FSunny.10 mph6%29.98 "Hg10 mi
10:00 am90 °FSunny.10 mph6%30.01 "Hg10 mi
9:00 am84 °FSunny.3 mph11%30.01 "Hg10 mi
8:00 am81 °FSunny.No wind15%30.01 "Hg10 mi
7:00 am75 °FSunny.No wind16%30.01 "Hg10 mi
6:00 am75 °FSunny.No wind18%29.98 "Hg10 mi
5:00 am77 °FClear.5 mph19%29.98 "Hg10 mi
4:00 am77 °FClear.6 mph18%29.98 "Hg10 mi
3:00 am77 °FClear.7 mph14%29.95 "Hg10 mi
2:00 am82 °FClear.6 mph16%29.98 "Hg10 mi
1:00 am82 °FClear.3 mph17%29.98 "Hg10 mi
12:00 am84 °FClear.5 mph16%29.98 "Hg10 mi
11:00 pm
Thu, Apr 27
86 °FClear.8 mph13%29.98 "Hg10 mi
Weather by CustomWeather, © 2017

See weather overviewHow to use our weather pages